[[{"header":{"parameterUnit":"m.s-1","parameterCategory":1,"la1":30.2991,"la2":30.254,"lo1":-89.0895,"lo2":-89.0444,"dy":0.0017,"dx":0.0017,"nx":28,"ny":28,"refTime":"2023-08-11T09:00:00:Z","depth":0,"parameterNumber":2,"parameterNumberName":"U-component_of_WINDS"},"data":[0,0,0,0,0,0,0,0,0,0,0,0,0,0,0,0,0,0,0,0,0,0,0,0,0,0,0,0,0,0,0,0,0,0,0,0,0,0,0,0,0,0,0,0,0,0,0,0,0,0,0,0,0,0,0,0,0,0,5.5161,5.5163,0,5.5324,5.5326,5.5327,5.5263,5.5259,5.5255,5.5252,5.542,5.5428,5.5436,0,0,0,0,0,0,0,0,0,0,0,0,0,5.4794,5.4801,5.5161,5.5163,5.5165,5.5323,5.5326,5.5328,5.5264,5.5259,5.5254,5.525,5.5417,5.5427,5.5436,0,0,0,0,0,0,0,0,0,0,0,0,0,5.4955,5.4804,5.516,5.5152,5.5153,5.5323,5.5326,5.5328,5.5265,5.5259,5.5253,5.5248,5.5414,5.5426,5.5438,5.5626,0,0,5.5474,5.548,0,0,0,0,0,0,0,0,5.4946,5.4968,5.5151,5.5153,5.5154,5.5267,5.5258,5.5428,5.5266,5.5222,5.5252,5.5245,5.5374,5.5389,5.5432,5.5634,5.5641,5.5476,5.5483,5.5488,5.5491,0,0,0,0,0,0,0,5.4935,5.4961,5.5225,5.5154,5.5156,5.514,5.5156,5.529,5.5328,5.5226,5.5221,5.5241,5.5373,5.542,5.5435,5.5644,5.5475,5.5486,5.5493,5.5498,5.6008,5.6014,0,0,0,0,0,0,5.4923,5.4952,5.522,5.523,5.5034,5.5151,5.517,5.5237,5.5326,5.5335,5.5246,5.5238,5.5403,5.5421,5.5441,5.5667,5.5488,5.5499,5.5506,5.6002,5.6009,5.6016,0,0,0,0,0,0,5.4916,5.4948,5.5213,5.509,5.5123,5.5164,5.5239,5.5243,5.529,5.5342,5.5348,5.5287,5.5399,5.5424,5.558,5.5672,5.5505,5.5516,5.5994,5.6004,5.6013,5.612,0,0,0,0,0,0,5.4905,5.4945,5.5018,5.5092,5.513,5.535,5.5245,5.525,5.531,5.5301,5.5382,5.539,5.5396,5.5563,5.5592,5.5685,5.5525,5.5986,5.5998,5.601,5.6109,5.6132,5.6152,0,0,0,0,0,5.4893,5.5042,5.5022,5.5054,5.5221,5.5356,5.5377,5.5381,5.5318,5.5391,5.5424,5.5387,5.5657,5.5579,5.5612,5.571,5.598,5.5995,5.6009,5.6099,5.6128,5.6152,0,0,0,0,0,0,5.4978,5.5052,5.503,5.5208,5.5276,5.5344,5.5436,5.5411,5.5499,5.5487,5.5488,5.5507,5.5668,5.5705,5.5617,5.5897,5.5809,5.5831,5.5866,5.5894,5.5916,5.5903,5.5535,0,0,0,0,0,5.5017,5.512,5.518,5.5331,5.5366,5.5396,5.5455,5.5452,5.5522,5.5551,5.5596,5.5666,5.5766,5.5832,5.5928,5.6114,5.613,5.6197,5.6219,5.6237,5.6255,5.6355,5.6385,5.6063,5.6063,5.6062,0,0,5.51,5.5153,5.5218,5.5349,5.5402,5.5508,5.542,5.5537,5.5616,5.5569,5.5718,5.5754,5.5833,5.6004,5.6082,5.604,5.6348,5.6255,5.6269,5.6277,5.6372,5.6403,5.643,5.6072,5.6071,5.6069,0,0,5.5304,5.5356,5.5487,5.5541,5.5621,5.5639,5.5671,5.5743,5.5765,5.5915,5.5881,5.5975,5.6149,5.6205,5.6257,5.6482,5.6451,5.6514,5.6627,5.6725,5.675,5.6772,5.6851,5.688,5.6532,5.6532,5.6532,0,5.5397,5.5556,5.5557,5.5677,5.5735,5.5696,5.5828,5.5881,5.5989,5.603,5.5981,5.6196,5.6247,5.643,5.6485,5.6529,5.6564,5.6504,5.6746,5.6769,5.679,5.6865,5.6895,5.6539,5.6538,5.6538,5.6537,0,5.5666,5.5777,5.5873,5.5977,5.6046,5.6171,5.6191,5.6261,5.6252,5.6276,5.6429,5.6487,5.6593,5.6637,5.663,5.682,5.6791,5.6744,5.6656,5.6827,5.6898,5.6927,5.6549,5.6546,5.6544,5.6543,0,0,5.5929,5.6031,5.6066,5.6112,5.6197,5.6283,5.6406,5.6509,5.6568,5.6644,5.6747,5.6894,5.6851,5.691,5.6909,5.6994,5.7167,5.6937,5.6939,5.6977,5.7379,5.7412,5.7445,5.7148,5.7153,5.7158,5.7371,0,5.6139,5.6355,5.6359,5.6557,5.6659,5.6623,5.673,5.6794,5.6819,5.691,5.6938,5.7041,5.6978,5.7012,5.7096,5.7129,5.7248,5.7113,5.7243,5.7247,5.7223,5.7483,5.7519,5.7718,5.7399,5.7404,5.7407,0,5.6413,5.6496,5.6704,5.6773,5.6816,5.6913,5.7006,5.7093,5.7165,5.7177,5.7242,5.7228,5.7353,5.7262,5.7435,5.7343,5.7397,5.7421,5.7429,5.744,5.7337,5.75,5.7781,5.7811,5.7451,5.7448,5.7445,0,5.6583,5.6747,5.6892,5.6932,5.7017,5.7085,5.7124,5.7189,5.7251,5.7333,5.7372,5.7469,5.7521,5.7596,5.7608,5.7541,5.7781,5.7691,5.7794,5.7794,5.7845,5.7842,5.8138,5.7882,5.7882,5.7881,5.7881,0,5.6816,5.6945,5.6968,5.7058,5.72,5.7203,5.7344,5.7377,5.7436,5.7531,5.7507,5.7596,5.7607,5.77,5.771,5.785,5.7875,5.7888,5.7889,5.7889,5.7888,5.7923,5.7909,5.7889,5.7888,5.7886,5.7885,0,5.7029,5.7051,5.7206,5.7273,5.7293,5.7395,5.7452,5.7537,5.7559,5.768,5.7708,5.7744,5.7851,5.7871,5.7998,5.8005,5.8172,5.816,5.8148,5.8146,5.8247,5.8237,5.8576,5.862,5.8336,5.8339,5.8341,0,5.7176,5.7274,5.7351,5.7412,5.7454,5.7554,5.7615,5.7622,5.7688,5.7776,5.785,5.7955,5.8039,5.8212,5.8249,5.8346,5.8335,5.8448,5.835,5.8347,5.8335,5.8329,5.8338,5.8466,5.8469,5.8472,5.8474,0,5.7435,5.744,5.753,5.7624,5.7698,5.7772,5.7843,5.7894,5.7911,5.7985,5.8094,5.816,5.8289,5.8393,5.8489,5.8528,5.8504,5.8504,5.8533,5.8534,5.8522,5.8528,5.8197,5.8496,5.8494,5.8492,5.8491,5.849,5.7619,5.7703,5.777,5.787,5.7924,5.799,5.8072,5.8105,5.8196,5.83,5.8299,5.8419,5.8487,5.8613,5.8659,5.8752,5.8716,5.8758,5.8769,5.8779,5.8787,5.8508,5.877,5.8769,5.8769,5.8768,5.8768,0,5.7874,5.7915,5.8008,5.8106,5.8185,5.8155,5.8231,5.8299,5.8404,5.8469,5.8552,5.8676,5.8777,5.8822,5.8921,5.8987,5.8978,5.9012,5.9007,5.9016,5.8815,5.8779,5.9018,5.9018,5.9018,5.9017,5.9017,5.9017,5.8017,5.8157,5.817,5.8337,5.8377,5.8493,5.8539,5.8599,5.8651,5.8791,5.8874,5.8902,5.8959,5.9062,5.9153,5.9163,5.92,5.924,5.9245,5.9056,5.903,5.9006,5.8973,5.9248,5.9248,5.9438,5.944,5.9441]},{"header":{"parameterUnit":"m.s-1","parameterCategory":1,"la1":30.2991,"la2":30.254,"lo1":-89.0895,"lo2":-89.0444,"dy":0.0017,"dx":0.0017,"nx":28,"ny":28,"refTime":"2023-08-11T09:00:00:Z","depth":0,"parameterNumber":3,"parameterNumberName":"V-component_of_WINDS"},"data":[0,0,0,0,0,0,0,0,0,0,0,0,0,0,0,0,0,0,0,0,0,0,0,0,0,0,0,0,0,0,0,0,0,0,0,0,0,0,0,0,0,0,0,0,0,0,0,0,0,0,0,0,0,0,0,0,0,0,0.5743,0.5743,0,0.5773,0.5773,0.5773,0.5751,0.575,0.5749,0.5748,0.5781,0.5783,0.5785,0,0,0,0,0,0,0,0,0,0,0,0,0,0.5669,0.567,0.5743,0.5743,0.5744,0.5773,0.5773,0.5773,0.5751,0.575,0.5749,0.5748,0.5781,0.5783,0.5785,0,0,0,0,0,0,0,0,0,0,0,0,0,0.57,0.5671,0.5743,0.5736,0.5736,0.5773,0.5773,0.5774,0.5752,0.575,0.5749,0.5747,0.578,0.5783,0.5785,0.5831,0,0,0.5793,0.5795,0,0,0,0,0,0,0,0,0.5698,0.5703,0.5737,0.5737,0.5736,0.5757,0.5759,0.5793,0.5752,0.5746,0.5748,0.5747,0.5774,0.5778,0.5786,0.5833,0.5834,0.5794,0.5795,0.5796,0.5797,0,0,0,0,0,0,0,0.5696,0.5702,0.5755,0.5737,0.5737,0.5732,0.5735,0.5765,0.5768,0.5746,0.5745,0.5748,0.5774,0.5784,0.5787,0.5834,0.5794,0.5796,0.5798,0.5799,0.5919,0.5921,0,0,0,0,0,0,0.5694,0.57,0.5754,0.5756,0.5713,0.5735,0.5738,0.5752,0.5768,0.5769,0.575,0.5747,0.578,0.5784,0.5788,0.5843,0.5796,0.5799,0.58,0.5918,0.592,0.5921,0,0,0,0,0,0,0.5693,0.5699,0.5753,0.5727,0.5734,0.5738,0.5753,0.5753,0.5763,0.577,0.5771,0.5759,0.5779,0.5784,0.582,0.5843,0.58,0.5803,0.5916,0.5918,0.592,0.5952,0,0,0,0,0,0,0.5691,0.5699,0.5716,0.5728,0.5735,0.5784,0.5755,0.5755,0.5767,0.5764,0.5779,0.578,0.5778,0.5816,0.5823,0.5846,0.5805,0.5914,0.5917,0.592,0.5949,0.5955,0.5961,0,0,0,0,0,0.5688,0.5725,0.5717,0.5724,0.5757,0.5785,0.579,0.5786,0.5769,0.5787,0.5791,0.578,0.584,0.582,0.5827,0.5852,0.5912,0.5916,0.5919,0.5947,0.5954,0.5961,0,0,0,0,0,0,0.5717,0.5726,0.5718,0.5759,0.5771,0.5782,0.5804,0.5794,0.5813,0.5809,0.5805,0.5808,0.5846,0.5852,0.5831,0.5897,0.5873,0.5879,0.5892,0.5899,0.5905,0.5903,0.5807,0,0,0,0,0,0.5728,0.575,0.5757,0.5792,0.5799,0.58,0.5813,0.5809,0.5822,0.5827,0.5834,0.5848,0.587,0.5885,0.5905,0.5949,0.5953,0.597,0.5976,0.598,0.5985,0.6009,0.6017,0.5933,0.5933,0.5933,0,0,0.5751,0.5759,0.5773,0.5798,0.5807,0.5831,0.5805,0.5831,0.5848,0.5831,0.5866,0.5871,0.5886,0.5926,0.5945,0.5933,0.6009,0.5985,0.5989,0.5991,0.6014,0.6022,0.6029,0.5936,0.5935,0.5935,0,0,0.5805,0.5813,0.5843,0.5853,0.5866,0.5867,0.5874,0.5885,0.5888,0.5922,0.591,0.593,0.5968,0.5979,0.599,0.6047,0.6037,0.6054,0.6084,0.6108,0.6114,0.612,0.6141,0.6148,0.6058,0.6058,0.6058,0,0.5832,0.5866,0.586,0.5887,0.5898,0.5883,0.5914,0.5923,0.5943,0.5952,0.5938,0.5985,0.5994,0.6036,0.605,0.6059,0.6068,0.6052,0.6114,0.612,0.6125,0.6145,0.6153,0.606,0.606,0.606,0.606,0,0.5899,0.5923,0.5946,0.5965,0.5979,0.6008,0.6006,0.6021,0.6016,0.6017,0.6052,0.6062,0.6084,0.6094,0.6089,0.6136,0.6128,0.6114,0.6091,0.6135,0.6154,0.6161,0.6063,0.6062,0.6062,0.6061,0,0,0.5974,0.5988,0.5996,0.6004,0.6018,0.6036,0.6064,0.6085,0.6098,0.6112,0.6136,0.6167,0.6154,0.6166,0.6162,0.6183,0.6227,0.6166,0.6167,0.6178,0.628,0.6291,0.6299,0.622,0.6222,0.6223,0.6279,0,0.6029,0.6077,0.6072,0.6118,0.614,0.6124,0.6148,0.616,0.6162,0.6181,0.6184,0.6206,0.6187,0.6194,0.6214,0.6218,0.6248,0.6214,0.6243,0.6244,0.6241,0.6309,0.6321,0.6373,0.6286,0.6287,0.6288,0,0.61,0.6116,0.6164,0.6173,0.6182,0.6204,0.6222,0.624,0.6253,0.6253,0.6266,0.6258,0.6286,0.6261,0.63,0.6277,0.6288,0.6292,0.6294,0.6297,0.627,0.6315,0.639,0.6398,0.6299,0.6298,0.6297,0,0.615,0.6183,0.6216,0.6223,0.6235,0.6251,0.6256,0.6267,0.6279,0.6295,0.6303,0.6323,0.6334,0.6349,0.6347,0.6328,0.6387,0.6361,0.6388,0.6388,0.6402,0.6402,0.6481,0.6408,0.6408,0.6408,0.6408,0,0.6213,0.6243,0.6238,0.6259,0.6292,0.6285,0.6319,0.6322,0.6332,0.6353,0.634,0.6361,0.6356,0.6376,0.6375,0.6407,0.6412,0.6414,0.6413,0.6415,0.6415,0.6424,0.642,0.641,0.641,0.6409,0.6409,0,0.6275,0.6273,0.6308,0.6316,0.6318,0.6342,0.6349,0.6368,0.6369,0.6396,0.6402,0.6403,0.6426,0.6425,0.6451,0.645,0.649,0.6485,0.6486,0.6486,0.6513,0.651,0.6601,0.6612,0.6532,0.6532,0.6533,0,0.6316,0.6338,0.6348,0.6361,0.6367,0.6388,0.64,0.6395,0.6408,0.6423,0.6441,0.6462,0.6479,0.6516,0.652,0.654,0.6536,0.6566,0.6539,0.654,0.6537,0.6536,0.6538,0.6572,0.6573,0.6573,0.6574,0,0.6388,0.6386,0.6404,0.6421,0.6436,0.645,0.6462,0.6473,0.6469,0.6484,0.6507,0.652,0.6546,0.6568,0.6587,0.6593,0.6583,0.6582,0.659,0.6593,0.6592,0.6593,0.6502,0.658,0.658,0.6579,0.6579,0.6579,0.6441,0.646,0.647,0.649,0.6499,0.651,0.6529,0.6531,0.655,0.657,0.6565,0.6591,0.6602,0.6626,0.6634,0.6654,0.6644,0.6654,0.6657,0.666,0.6663,0.6588,0.6657,0.6657,0.6657,0.6657,0.6657,0,0.6514,0.6519,0.6537,0.6554,0.657,0.6558,0.6571,0.6585,0.6608,0.6618,0.6635,0.6661,0.6681,0.6686,0.6706,0.6721,0.6717,0.6727,0.6726,0.6728,0.6671,0.6663,0.673,0.673,0.673,0.673,0.673,0.673,0.6553,0.6585,0.6583,0.6619,0.6624,0.6649,0.6657,0.6668,0.6676,0.6706,0.6722,0.6725,0.6733,0.6753,0.6772,0.6773,0.6781,0.6793,0.6792,0.6739,0.6732,0.6725,0.6717,0.6794,0.6794,0.6847,0.6847,0.6848]}]]